Home   Weather   Strasbourg   Past weeks

Flag for France Past Weather in Strasbourg, Alsace, France — Yesterday and Last 2 Weeks

Now
39 °F

Overcast.


Feels Like: 37 °F
Forecast: 40 / 49 °F
Wind: 3 mph from North

Location: Strasbourg Airport

Current Time: Feb 27, 2017 at 4:14:23 am

Latest Report: Feb 27, 2017 at 3:30 am


Visibility: N/A

Pressure: 29.92 "Hg

Humidity: 70%

Dew Point: 30 °F

Location of StrasbourgLocation

Past Weather in Strasbourg — Graph

°F

Strasbourg Temperature Yesterday

Maximum temperature yesterday: 55 °F (at 3:00 pm)
Minimum temperature yesterday: 34 °F (at 12:30 am)
Average temperature yesterday: 44 °F

High & Low Weather Summary for the Past Weeks

 TemperatureHumidityPressure
High68 °F (Feb 23, 2:30 pm)100% (Feb 12, 3:00 am)30.60 "Hg (Feb 12, 3:00 am)
Low25 °F (Feb 14, 5:30 am)24% (Feb 23, 3:30 pm)29.56 "Hg (Feb 23, 3:00 pm)
Average43 °F80%30.20 "Hg
* Reported Feb 12 3:00 am — Feb 27 3:00 am, Strasbourg, Weather by CustomWeather, © 2017

Note: Actual official high and low records may vary slightly from our data, if they occured in-between our weather recording intervals... More about our weather records

Advertising

Strasbourg Weather History for the Previous 24 Hours

Scroll right to see more
 ConditionsComfort  
Time TempWeatherWind HumidityBarometerVisibility
3:00 am
Mon, Feb 27
41 °FOvercast.3 mph66%29.92 "HgN/A
2:30 am41 °FPassing clouds.3 mph66%29.95 "HgN/A
2:00 am37 °FPassing clouds.5 mph75%29.95 "HgN/A
1:30 am36 °FPassing clouds.3 mph81%29.95 "HgN/A
1:00 am37 °FClear.3 mph81%29.95 "Hg10 mi
12:30 am39 °FClear.2 mph75%29.95 "Hg10 mi
12:00 am41 °FPassing clouds.3 mph70%29.95 "HgN/A
11:30 pm
Sun, Feb 26
43 °FPassing clouds.5 mph71%29.98 "HgN/A
11:00 pm45 °FPassing clouds.2 mph66%29.98 "HgN/A
10:30 pm45 °FPassing clouds.3 mph66%29.98 "HgN/A
10:00 pm46 °FPassing clouds.6 mph62%29.98 "HgN/A
9:30 pm48 °FOvercast.6 mph62%29.98 "HgN/A
9:00 pm48 °FOvercast.7 mph62%29.98 "HgN/A
8:30 pm48 °FOvercast.8 mph62%29.98 "HgN/A
8:00 pm46 °FOvercast.3 mph66%29.98 "HgN/A
7:30 pm48 °FPassing clouds.3 mph62%29.98 "HgN/A
7:00 pm48 °FClear.6 mph62%29.98 "Hg10 mi
6:30 pm50 °FPassing clouds.3 mph54%29.98 "HgN/A
6:00 pm50 °FSunny.3 mph54%29.98 "Hg10 mi
5:30 pm54 °FSunny.6 mph47%29.98 "Hg10 mi
5:00 pm55 °FSunny.9 mph41%29.98 "Hg10 mi
4:30 pm55 °FPassing clouds.9 mph44%29.98 "HgN/A
4:00 pm55 °FSunny.12 mph44%29.98 "Hg10 mi
3:30 pm55 °FSunny.13 mph47%29.98 "Hg10 mi
3:00 pm55 °FPassing clouds.10 mph47%30.01 "HgN/A
2:30 pm54 °FPassing clouds.8 mph47%30.01 "HgN/A
2:00 pm52 °FPassing clouds.7 mph54%30.01 "HgN/A
1:30 pm50 °FSunny.5 mph62%30.04 "Hg10 mi
1:00 pm50 °FPassing clouds.5 mph58%30.04 "HgN/A
12:30 pm48 °FPassing clouds.6 mph66%30.04 "HgN/A
12:00 pm48 °FSunny.7 mph62%30.07 "Hg10 mi
11:30 am46 °FSunny.8 mph66%30.07 "Hg10 mi
11:00 am45 °FPassing clouds.6 mph71%30.07 "HgN/A
10:30 am43 °FSunny.8 mph76%30.07 "Hg10 mi
10:00 am43 °FPassing clouds.6 mph76%30.07 "HgN/A
9:30 am41 °FSunny.5 mph81%30.07 "Hg10 mi
9:00 am41 °FPassing clouds.7 mph81%30.07 "HgN/A
8:30 am37 °FSunny.3 mph87%30.07 "Hg10 mi
8:00 am36 °FSunny.2 mph93%30.07 "Hg10 mi
7:30 am36 °FSunny.6 mph87%30.04 "Hg10 mi
7:00 am34 °FPassing clouds.3 mph93%30.04 "HgN/A
6:30 am34 °FClear.3 mph93%30.04 "Hg10 mi
6:00 am36 °FClear.3 mph87%30.04 "Hg10 mi
5:30 am36 °FClear.3 mph87%30.04 "Hg10 mi
5:00 am34 °FClear.2 mph93%30.07 "Hg10 mi
4:30 am34 °FClear.2 mph93%30.07 "Hg10 mi
4:00 am34 °FClear.5 mph93%30.07 "Hg10 mi
Weather by CustomWeather, © 2017

See weather overviewHow to use our weather pages